AYRIS-1

导读 | 星芒AI

AYRIS-1 是一颗由日本初创公司 AYRIS 开发的小型卫星,主要用于验证卫星通信和物联网(IoT)技术。该卫星于2023年发射,旨在通过低轨道提供高效的地球观测和数据传输服务。AYRIS-1 采用模块化设计,具备低成本、高灵活性的特点,为未来构建更大规模的卫星网络奠定基础。

基本信息
目录编号:
56988
目录名称:
AYRIS-1
国际标识:
2023-084BJ
轨道中心:
EARTH
卫星名称:
AYRIS-1
卫星全名:
--
卫星状态:
已陨落 最后检测时间 2025-05-13
发射日期:
2023-06-12 UTC
国别 :
以色列 (IL)
星等 :
--
轨道信息
数据来源 国际轨道数据
星历时间: 2025-05-09T03:14:06+0800
轨道信息已过期220天
半长轴: 6532.936km
偏心率: 0.0010943
轨道倾角: 97.528°
近地点辐角 246.877°
升交点赤经 268.628°
平近点角 113.138°
近地点: 147.652km
远地点: 161.95km
周期: 87.584分钟
每日圈数: 16.441452
详细信息
使用方式:
暂无